This is the latest recevied weather packets stored in our database for station/object KY0TEQ-13. If no packets are shown the sender has not sent any weather packets the latest 10 day(s).
| Time | Temp. | Humidity | Pressure | Rain* | Wind** | Luminosity | Snow |
|---|---|---|---|---|---|---|---|
| 1788667244 | 18.89° C | 33% | 1308.8 hPa | 0 mm | - | 0 W/m² | - |
| 1788666910 | 19.44° C | 31% | 1308.8 hPa | 0 mm | - | 0 W/m² | - |
| 1788666601 | 20.56° C | 30% | 1308.6 hPa | 0 mm | - | 0 W/m² | - |
| 1788666301 | 20.56° C | 29% | 1308.8 hPa | 0 mm | - | 0 W/m² | - |
| 1788665996 | 20.56° C | 29% | 1308.6 hPa | 0 mm | - | 0 W/m² | - |
| 1788665690 | 20.56° C | 30% | 1308.5 hPa | 0 mm | - | 0 W/m² | - |
| 1788665386 | 20° C | 32% | 1308.6 hPa | 0 mm | - | 0 W/m² | - |
| 1788665083 | 20.56° C | 31% | 1308.4 hPa | 0 mm | - | 0 W/m² | - |
| 1788664777 | 20.56° C | 31% | 1308.4 hPa | 0 mm | - | 0 W/m² | - |
| 1788664472 | 21.11° C | 29% | 1308.5 hPa | 0 mm | - | 0 W/m² | - |
| 1788664168 | 21.67° C | 29% | 1308.3 hPa | 0 mm | - | 0 W/m² | - |
| 1788663862 | 21.11° C | 29% | 1308.4 hPa | 0 mm | - | 0 W/m² | - |
| 1788663556 | 21.11° C | 29% | 1308.3 hPa | 0 mm | - | 0 W/m² | - |
| 1788663251 | 21.11° C | 29% | 1308.2 hPa | 0 mm | - | 0 W/m² | - |
| 1788662950 | 21.11° C | 29% | 1308 hPa | 0 mm | - | 0 W/m² | - |
| 1788662649 | 21.11° C | 28% | 1308 hPa | 0 mm | - | 0 W/m² | - |
| 1788662345 | 21.11° C | 28% | 1308 hPa | 0 mm | - | 0 W/m² | - |
| 1788662040 | 21.11° C | 27% | 1307.8 hPa | 0 mm | - | 0 W/m² | - |
| 1788661735 | 21.11° C | 27% | 1307.7 hPa | 0 mm | - | 0 W/m² | - |
| 1788661430 | 21.11° C | 26% | 1307.6 hPa | 0 mm | - | 0 W/m² | - |
| 1788661126 | 21.11° C | 27% | 1307.6 hPa | 0 mm | - | 0 W/m² | - |
| 1788660825 | 21.11° C | 26% | 1307.8 hPa | 0 mm | - | 0 W/m² | - |
| 1788660520 | 21.11° C | 26% | 1307.7 hPa | 0 mm | - | 0 W/m² | - |
| 1788660219 | 21.67° C | 26% | 1307.7 hPa | 0 mm | - | 0 W/m² | - |
| 1788659914 | 21.67° C | 25% | 1307.6 hPa | 0 mm | - | 0 W/m² | - |
* Rain latest hour (hover to see other rain measurements)
** Current wind speed in m/s (hover to see current wind gust speed)